Wind_Speed
45 45 46 45 45 45 46 48 49 49 48 47 48 48 47 46 47 47 48 49 49 49 50 50 50 48 46 44 42 40 40 39 38 38 37 36 35 34 33 31 30 30 30 30 28 26 24 23 21 19 18 18 18 18 18 17 17 16 16 15 15 14 14
45 44 45 45 46 46 47 49 49 50 50 49 50 49 48 47 47 48 48 49 50 50 50 51 52 50 47 45 43 42 41 40 40 39 38 37 36 35 34 33 31 30 30 30 29 28 26 25 22 20 18 18 18 19 19 19 18 18 17 16 16 15 15
45 43 45 46 47 47 48 49 49 50 51 51 51 51 51 50 49 49 48 48 49 49 49 51 52 52 50 47 46 44 43 42 40 40 39 38 37 36 35 34 33 31 30 30 29 29 28 27 24 21 19 18 17 17 18 19 20 19 18 18 17 17 16
44 44 46 46 47 48 47 48 49 51 52 52 53 54 54 52 49 47 47 47 48 48 49 50 52 53 52 50 48 45 44 43 41 40 39 38 37 37 36 36 35 33 31 30 29 29 28 27 26 24 22 20 19 18 17 18 19 19 19 19 19 19 18
42 44 44 43 45 47 47 48 48 49 51 52 53 53 53 51 48 46 46 46 46 47 48 48 50 52 52 51 49 46 43 42 41 40 39 39 38 38 37 37 36 35 33 31 30 29 28 27 26 25 24 23 22 20 19 18 18 19 19 19 20 20 20
41 42 42 43 45 47 48 49 49 48 49 50 51 51 50 50 48 46 47 47 46 46 46 47 49 51 52 52 51 48 45 42 41 40 40 39 39 39 38 38 37 36 34 32 31 30 28 27 26 25 25 24 24 23 22 21 20 19 19 20 20 21 21
43 44 44 45 46 48 48 49 49 49 48 47 48 48 48 49 48 47 48 48 47 46 46 47 49 51 52 52 52 51 49 46 44 42 41 40 40 40 39 38 37 36 35 34 32 31 30 28 27 26 25 25 25 24 24 23 22 22 21 21 21 21 21
45 46 48 48 48 48 48 48 49 49 48 46 45 46 47 48 48 47 48 49 48 46 46 47 49 51 52 53 52 52 50 48 46 44 43 42 41 40 40 39 38 37 36 35 34 32 31 30 29 28 27 27 26 26 25 25 24 24 23 23 23 23 23
44 45 48 49 47 47 48 49 50 49 48 46 45 46 47 47 48 49 49 48 47 46 46 47 48 50 51 52 53 52 51 49 47 46 46 45 44 42 41 40 38 38 37 36 35 34 33 32 31 30 29 29 28 28 27 26 26 25 25 25 25 26 26
41 41 46 49 46 45 48 48 48 49 47 46 47 47 48 49 49 49 48 46 45 45 46 47 48 49 51 52 53 52 52 50 48 47 47 46 45 43 42 41 39 39 38 37 36 35 34 33 32 31 31 31 31 30 30 29 28 27 27 27 27 27 27
45 42 43 48 46 44 47 47 46 48 47 46 47 48 49 50 50 50 47 44 42 43 45 47 49 49 50 51 52 52 52 51 50 49 48 47 46 44 43 42 41 40 39 38 37 36 35 34 33 32 32 33 33 32 32 32 31 30 29 29 29 29 28
48 46 43 47 48 45 46 46 45 46 45 45 46 46 47 48 49 49 45 41 41 41 42 45 47 49 50 51 52 53 53 53 52 51 49 48 46 45 44 43 42 41 40 39 38 37 36 35 35 34 34 34 34 34 33 33 33 32 32 31 31 31 31
45 47 43 46 50 48 47 47 46 45 43 44 46 46 46 46 46 45 42 40 41 41 41 43 45 47 49 50 51 53 53 53 52 51 50 48 47 46 45 44 43 42 41 40 39 38 37 37 36 36 35 35 35 35 35 35 35 35 34 33 33 33 33
41 41 40 44 49 49 48 48 48 47 46 46 46 47 46 45 43 42 41 41 42 42 42 42 42 45 46 48 50 52 53 53 52 51 50 49 47 46 45 45 44 43 42 41 40 39 39 39 38 38 37 37 36 36 36 37 37 37 36 36 35 34 35
34 32 34 40 45 47 47 47 47 48 48 47 46 45 45 45 43 42 42 43 43 43 43 42 42 43 45 46 49 50 51 51 51 51 50 49 48 47 46 46 45 44 43 42 41 40 40 40 40 39 39 39 38 38 38 39 39 39 38 38 37 36 36
27 28 33 37 41 45 46 46 46 46 47 47 44 42 43 44 44 44 44 44 44 44 44 43 43 44 45 46 47 48 48 49 50 50 49 49 48 47 46 46 45 44 43 43 42 41 40 40 40 41 41 40 40 39 39 40 40 40 40 39 38 37 37
24 27 32 35 38 41 42 43 44 43 44 43 42 41 41 42 43 44 43 43 43 43 43 43 43 44 45 46 46 46 46 47 48 49 49 49 48 47 46 46 45 45 44 43 42 41 41 40 40 41 41 41 41 40 41 41 41 41 41 40 39 38 38
22 25 28 31 35 37 37 38 39 37 37 37 37 40 41 40 40 42 43 42 42 41 42 42 43 44 45 45 45 46 46 46 45 47 48 48 48 48 47 46 45 45 44 44 43 42 41 41 41 41 41 41 41 41 41 41 40 40 40 40 40 39 39
21 22 23 27 30 30 30 28 26 27 30 34 37 39 41 40 38 38 39 40 39 39 41 42 43 43 45 46 46 46 46 46 45 45 45 46 46 47 46 46 46 46 45 44 43 43 42 42 41 41 41 41 41 41 41 40 40 39 39 38 38 38 38
20 19 17 19 21 21 22 20 18 20 25 30 34 35 36 37 36 34 35 36 37 38 39 41 42 43 44 45 47 47 46 45 45 44 44 43 43 44 46 47 47 46 45 44 44 44 44 43 42 42 42 42 42 41 41 41 40 39 38 38 37 37 37
18 17 15 16 14 14 18 18 16 16 18 19 23 26 29 31 32 31 31 32 35 36 37 38 40 42 44 45 46 48 48 46 45 44 44 43 42 43 44 45 46 45 45 45 45 45 45 44 44 43 43 43 43 43 43 43 41 40 40 39 37 36 36
26 26 23 20 17 15 17 17 14 13 14 14 14 17 22 26 28 30 29 30 32 34 35 37 39 41 42 43 45 48 49 48 46 44 43 42 42 43 43 44 45 45 45 45 45 45 45 45 45 45 44 44 43 44 45 45 44 43 42 41 40 38 37
28 27 25 23 21 20 19 19 17 15 17 16 12 11 16 21 24 27 28 29 31 33 33 34 38 41 42 42 42 45 48 49 48 46 44 43 43 43 43 43 43 44 44 45 46 46 46 46 46 45 45 45 45 45 46 46 46 45 44 43 41 40 39
24 21 20 18 17 17 15 13 12 12 14 14 12 13 15 16 17 22 26 27 30 32 33 34 36 38 41 42 41 41 44 47 49 47 45 44 43 43 43 43 43 43 43 45 45 46 46 46 46 46 47 47 47 47 47 47 46 46 45 43 40 39 39
23 19 16 14 13 15 14 11 10 10 7 5 9 12 14 13 12 14 20 25 28 29 31 35 37 37 38 40 40 39 40 43 46 47 47 45 44 43 42 42 42 42 42 43 44 45 45 45 46 46 47 47 48 47 48 47 46 45 45 43 40 37 35
21 19 17 14 12 13 12 10 12 12 7 3 4 9 12 14 13 12 13 19 25 29 30 32 34 35 36 37 37 38 37 39 42 45 46 46 44 42 42 41 41 41 41 41 42 42 43 44 45 45 45 46 46 46 46 46 45 44 43 42 41 38 35
17 18 19 15 12 11 10 9 11 10 4 2 4 7 10 14 15 15 13 14 19 26 29 29 29 30 32 34 36 37 36 36 37 40 43 44 43 42 41 41 40 40 39 39 39 39 40 41 43 44 44 43 43 43 43 43 43 42 41 40 39 38 37
16 17 18 14 11 10 9 8 7 4 2 5 6 6 9 12 13 14 13 13 15 20 23 24 26 27 28 30 33 36 36 35 34 35 38 40 41 41 40 40 39 38 37 37 37 37 38 39 40 41 43 42 41 40 40 40 39 39 38 37 37 37 38
17 16 15 13 10 8 7 6 4 2 5 7 8 6 7 11 13 12 11 11 14 16 18 18 19 22 25 28 29 32 35 35 34 33 35 37 39 39 39 38 37 37 36 35 35 35 37 38 38 39 40 41 41 39 38 37 36 35 34 34 33 33 34
15 14 13 10 9 7 4 4 6 6 6 6 7 4 2 5 9 10 10 12 13 15 16 16 15 16 21 26 28 29 31 33 34 33 33 34 37 37 37 36 36 35 34 34 34 34 35 36 37 37 38 38 38 38 36 34 31 29 29 29 29 29 29
12 13 11 8 8 7 3 3 6 7 4 3 2 0 1 2 4 7 10 12 13 13 14 15 15 15 16 20 25 29 30 31 32 32 32 33 34 35 34 34 34 33 32 32 32 33 34 35 35 34 34 34 34 34 33 31 28 26 25 26 27 26 26
9 10 11 10 9 7 4 2 4 4 3 2 2 2 2 2 4 6 8 10 11 13 13 13 14 15 14 15 21 27 30 30 30 30 30 31 31 31 30 31 31 30 30 30 31 32 32 32 32 31 30 29 29 29 28 27 27 26 27 27 27 25 24
11 7 8 10 9 7 5 4 4 5 5 5 4 4 5 4 4 5 6 8 9 11 12 11 12 14 14 14 18 24 28 28 28 27 27 27 27 26 26 26 26 27 27 29 29 30 30 30 29 29 28 27 26 25 24 24 26 27 27 26 26 25 25
11 6 6 8 8 6 5 5 5 5 6 7 6 6 6 6 6 5 6 7 8 9 11 11 10 10 12 13 17 21 23 23 23 23 22 22 22 22 23 22 22 23 26 27 28 28 29 28 27 27 27 26 24 23 23 24 26 26 26 26 25 26 26
10 7 6 6 6 6 5 4 3 4 5 5 5 6 5 6 7 7 6 7 6 6 10 13 11 10 12 13 16 19 20 18 18 18 19 20 21 22 22 22 22 23 24 25 25 25 25 25 25 25 26 25 23 22 23 24 26 26 27 26 25 24 23
10 8 6 5 4 4 5 4 3 4 4 3 5 7 6 6 7 6 5 7 6 5 8 12 13 12 13 14 15 17 18 18 17 17 18 20 21 22 22 22 22 23 23 23 23 23 22 22 22 23 24 23 22 20 20 20 21 22 22 21 20 19 19
9 8 7 5 4 4 5 4 3 4 4 4 5 6 6 7 7 4 4 6 7 7 7 10 12 13 14 15 16 15 16 16 18 19 19 20 21 23 23 23 23 23 21 20 21 21 22 22 21 22 22 22 21 20 19 17 17 16 16 15 15 15 16
9 8 7 5 4 5 4 3 4 5 4 5 6 6 7 8 6 4 4 4 6 8 7 8 11 12 13 14 15 15 14 15 18 20 20 19 22 24 25 25 24 22 19 17 18 18 20 20 20 20 21 20 19 19 18 16 15 15 14 15 15 16 17
Wind_Direction
177 179 182 183 184 186 190 193 193 193 195 196 197 198 199 202 203 204 206 207 209 209 208 208 208 211 214 217 219 219 219 219 219 218 217 218 218 219 221 221 219 216 214 218 222 224 225 225 226 226 223 221 218 217 217 217 220 218 216 220 222 225 229
178 179 180 181 183 186 190 193 193 193 194 196 197 197 199 202 203 205 206 208 210 211 210 209 209 211 215 217 218 219 220 220 221 221 219 219 219 220 222 224 224 222 219 220 222 225 227 228 228 228 228 226 222 220 219 218 219 218 217 218 222 225 229
176 178 179 181 184 187 191 194 194 195 196 196 197 199 201 203 205 206 207 208 209 210 211 211 210 212 215 217 219 220 222 222 222 221 220 220 220 221 223 224 226 227 225 223 223 223 224 227 230 230 230 231 228 225 222 221 221 220 218 219 222 227 230
175 176 179 182 184 188 192 195 197 197 199 200 200 202 204 205 205 206 207 208 209 210 212 213 213 213 215 216 218 220 222 222 223 223 222 222 222 221 222 223 226 227 227 227 226 225 223 224 228 230 231 233 233 231 227 224 223 222 220 221 223 227 231
174 173 176 179 182 188 192 194 197 198 200 201 203 205 205 204 204 206 208 210 211 213 214 215 215 215 215 216 218 220 222 223 224 224 224 224 223 223 223 224 225 227 228 228 228 228 226 224 225 227 229 231 234 235 233 231 229 225 223 224 225 226 229
172 172 174 177 182 189 192 194 196 198 200 201 203 204 203 203 204 206 209 210 213 215 216 216 217 216 216 217 218 220 222 223 223 224 225 224 224 224 225 225 225 226 228 229 229 230 229 228 226 225 225 228 231 233 235 236 235 232 228 227 229 228 229
171 175 177 180 184 189 192 195 197 199 200 201 201 202 202 203 204 206 208 210 213 215 215 216 218 218 218 218 219 220 221 222 223 223 224 225 225 226 226 225 225 226 228 229 230 230 229 230 230 228 226 227 230 232 234 236 237 238 234 230 231 232 232
173 177 180 183 187 190 191 194 196 197 198 198 198 200 201 202 203 204 207 210 212 214 216 218 218 219 219 219 220 221 222 223 224 223 224 224 225 227 227 227 226 227 227 228 230 232 231 230 230 230 229 228 230 233 236 238 238 239 239 236 234 234 235
176 177 182 186 187 189 192 194 195 196 196 195 196 198 199 200 201 204 207 209 211 213 216 219 220 220 220 220 221 222 223 224 225 225 224 224 225 227 227 228 228 228 228 229 231 232 233 232 230 230 231 231 232 233 236 240 240 240 241 241 239 238 238
174 174 183 189 189 189 192 194 194 194 194 193 196 198 199 199 200 202 205 207 210 214 217 220 220 220 221 221 222 222 222 224 225 226 225 225 226 227 228 229 229 229 230 230 231 232 233 234 231 230 231 232 233 234 236 239 241 241 241 242 242 242 242
174 173 178 185 187 187 191 194 194 193 194 195 198 201 202 203 204 204 205 207 210 214 217 219 220 220 221 221 222 223 222 223 224 225 226 226 227 228 228 228 230 231 231 231 232 232 233 233 233 231 231 233 235 237 238 239 241 242 242 243 243 244 244
174 175 174 177 181 182 186 191 192 193 194 197 201 204 205 206 207 207 206 207 211 215 217 219 220 220 221 222 222 223 223 223 223 224 226 227 227 228 228 228 230 231 231 231 231 232 232 233 234 234 234 234 236 238 240 241 242 243 244 244 244 245 246
175 177 173 173 176 177 180 185 189 192 194 198 200 203 205 206 207 207 205 206 209 214 217 218 219 220 221 221 222 223 223 223 224 225 226 228 228 228 229 229 229 230 232 232 231 231 232 233 235 237 238 238 238 239 240 241 242 243 244 244 245 246 246
173 174 173 171 173 176 179 182 187 190 194 197 200 202 205 207 206 204 202 204 208 212 216 218 219 219 220 221 222 223 223 224 225 226 227 228 228 229 229 229 229 229 231 233 232 232 233 234 236 239 240 240 241 241 242 241 241 242 242 242 244 245 246
162 164 167 168 172 175 178 180 184 188 192 196 200 204 207 207 204 202 201 205 208 211 214 217 218 218 219 220 222 223 224 224 225 226 226 227 227 228 229 229 229 229 230 231 233 235 235 234 236 239 240 241 242 242 242 241 241 241 241 242 243 244 246
140 150 160 165 170 175 178 181 185 189 192 195 198 201 204 204 202 202 202 205 208 211 213 215 217 218 218 219 221 223 224 224 224 225 225 226 227 228 229 229 229 229 229 230 233 235 236 235 235 236 238 240 241 241 241 241 241 242 242 242 243 244 245
120 136 153 162 168 174 179 183 188 191 193 196 198 200 200 201 202 202 203 205 208 211 212 213 217 218 218 219 221 224 225 225 224 225 225 226 227 228 229 229 229 228 228 230 232 235 236 237 236 236 237 239 240 241 241 242 243 243 243 243 244 244 244
129 136 148 158 166 172 177 182 187 191 195 198 200 201 200 201 202 203 205 207 210 212 212 214 217 219 220 220 221 224 226 226 225 225 226 226 226 228 229 229 228 228 228 229 231 233 236 238 238 237 236 237 239 240 242 244 245 245 244 244 244 244 244
134 138 147 157 163 167 171 176 181 189 196 199 202 203 202 202 202 204 207 209 210 213 214 215 217 219 221 220 221 224 226 227 227 226 226 227 227 228 228 228 228 228 228 230 231 233 235 238 239 239 237 237 238 240 243 246 247 246 246 246 246 245 244
121 126 136 152 159 165 172 178 182 188 193 196 199 202 202 203 204 207 210 211 212 213 215 216 218 220 222 222 222 224 226 227 229 228 228 229 228 228 228 228 228 229 229 230 231 231 234 236 238 239 239 238 239 241 244 247 249 249 248 248 247 246 245
98 106 117 138 154 169 177 177 175 179 184 189 197 200 201 204 207 210 213 213 214 214 216 218 219 220 224 225 223 223 224 226 229 230 230 230 229 228 228 228 229 229 229 229 230 232 233 235 237 239 241 241 241 241 243 246 249 250 250 250 249 248 247
81 90 97 107 116 132 153 159 156 163 176 185 195 203 207 209 210 212 215 215 215 216 218 220 221 222 224 227 226 224 223 224 226 228 231 232 230 229 229 229 230 230 229 229 230 232 233 235 237 239 241 242 243 243 244 245 246 248 250 251 251 250 248
77 85 89 94 100 110 132 150 153 158 171 177 175 182 201 212 214 216 218 218 219 220 219 221 223 223 225 228 228 226 225 224 224 225 228 231 232 232 232 232 231 231 230 230 230 230 232 234 237 238 240 241 242 244 246 246 246 246 247 249 249 249 249
68 73 78 82 90 94 104 129 142 149 167 180 179 172 181 196 208 215 219 220 221 222 223 224 225 225 226 229 230 229 227 226 225 225 226 228 232 234 234 234 234 233 232 231 231 232 233 234 236 237 238 240 241 243 246 246 247 247 247 248 248 248 249
60 60 60 57 65 73 74 86 103 108 121 167 191 190 190 193 199 210 219 222 222 222 223 225 226 227 228 229 231 232 230 228 227 226 226 227 230 234 235 236 236 236 235 234 234 234 234 234 235 236 237 239 241 243 245 246 247 248 248 248 248 249 251
56 55 49 33 35 52 56 64 75 75 64 60 195 207 211 210 209 213 220 224 223 223 225 226 226 228 230 231 232 233 233 232 229 228 228 228 228 231 234 236 236 236 236 236 236 237 236 235 236 237 238 240 241 243 245 246 247 248 249 249 249 250 253
56 59 52 32 18 28 37 48 60 60 46 278 236 229 225 221 219 222 224 224 221 222 226 230 229 228 229 231 233 234 234 234 232 230 230 230 229 229 232 235 235 235 236 237 237 238 238 237 238 238 239 241 242 244 245 246 248 250 250 251 251 251 252
54 61 53 32 11 18 33 48 61 72 227 251 252 240 231 231 232 232 233 232 225 221 224 230 232 230 228 228 231 233 235 235 233 231 230 229 229 228 229 232 235 235 236 237 238 239 240 240 240 240 241 242 243 245 247 248 249 251 252 253 254 254 254
53 54 43 22 6 14 36 50 40 304 266 278 285 270 243 237 239 242 245 242 236 230 228 230 231 231 229 228 228 230 232 234 233 231 229 229 229 228 228 231 233 234 236 237 238 240 241 242 242 242 243 243 244 246 248 250 251 252 254 255 256 256 255
54 51 37 11 357 5 32 59 24 339 305 307 313 311 276 243 239 239 239 239 239 237 231 229 227 226 226 227 228 229 230 231 232 231 229 229 228 227 228 230 233 235 237 238 239 240 241 241 242 243 243 244 245 246 247 249 252 253 255 256 257 257 258
54 51 34 4 353 3 23 66 27 355 325 324 330 117 131 185 210 215 221 226 232 235 230 228 227 223 220 224 228 229 229 229 230 229 228 228 227 227 228 230 232 234 236 238 239 239 240 241 241 242 244 244 245 245 245 246 249 251 254 256 256 257 258
36 39 25 4 357 5 15 28 7 343 320 306 256 216 213 196 186 197 210 215 219 223 222 225 229 227 220 219 224 228 227 226 226 225 224 225 225 226 229 231 232 234 236 237 238 238 239 240 240 241 242 243 244 244 244 245 245 247 249 251 252 253 255
7 15 19 7 357 359 10 15 358 330 316 315 294 256 252 243 205 199 208 213 217 216 211 212 222 227 223 217 219 222 221 220 219 218 217 220 223 225 228 231 234 236 236 236 236 237 237 237 237 238 238 239 241 242 243 242 241 242 244 247 250 253 254
359 356 5 1 351 347 352 3 4 343 328 327 315 281 262 259 252 233 212 211 220 218 209 201 200 207 211 208 208 211 213 213 213 212 212 215 218 222 225 229 233 235 235 234 234 234 234 233 233 234 234 235 237 237 237 237 238 240 243 246 249 252 254
359 355 354 349 346 344 338 341 353 342 339 346 331 303 283 277 271 254 224 210 208 206 206 201 190 185 190 193 195 198 201 204 205 206 207 208 209 213 218 220 223 227 230 232 231 232 233 232 232 231 231 232 233 232 233 235 236 238 241 243 246 249 254
345 339 334 334 345 339 321 322 341 340 342 351 329 312 299 291 283 265 232 214 198 183 195 200 195 188 187 190 193 196 199 202 203 205 208 208 208 211 212 211 212 216 223 227 227 227 229 229 228 227 228 228 228 226 227 230 231 233 235 237 241 246 253
329 332 330 333 336 320 311 318 324 325 332 328 315 312 312 311 303 274 231 214 192 173 175 191 196 193 192 194 195 195 198 201 202 205 210 211 212 214 212 206 202 204 212 216 216 218 220 221 221 222 223 225 227 224 221 222 222 225 230 235 242 249 257
318 325 322 311 296 286 290 292 285 297 312 308 303 307 313 318 312 252 219 208 184 171 162 175 192 195 193 195 195 193 195 198 200 204 208 208 209 211 211 206 198 192 192 197 201 203 206 207 208 211 214 218 221 220 221 223 228 235 245 253 261 269 275
Height
1432 1436 1440 1443 1447 1452 1455 1458 1462 1466 1471 1474 1478 1482 1485 1487 1489 1491 1493 1496 1500 1502 1505 1509 1511 1513 1515 1518 1520 1523 1526 1529 1531 1534 1536 1539 1541 1543 1544 1546 1548 1550 1551 1553 1554 1556 1558 1560 1562 1563 1564 1566 1568 1569 1571 1572 1573 1575 1576 1577 1577 1578 1579
1428 1431 1435 1439 1443 1448 1451 1455 1459 1462 1466 1470 1473 1478 1481 1484 1486 1487 1489 1492 1496 1499 1502 1505 1508 1510 1512 1514 1517 1520 1523 1525 1528 1531 1533 1536 1538 1540 1542 1544 1545 1547 1549 1551 1553 1554 1556 1558 1560 1561 1563 1564 1566 1567 1569 1570 1572 1573 1574 1575 1576 1576 1577
1422 1427 1430 1434 1438 1443 1447 1451 1455 1458 1461 1465 1469 1473 1476 1479 1481 1483 1486 1489 1493 1497 1500 1502 1505 1507 1509 1511 1514 1516 1519 1522 1525 1528 1530 1532 1535 1537 1539 1541 1543 1545 1547 1549 1551 1553 1554 1556 1557 1559 1561 1562 1564 1565 1567 1568 1570 1571 1573 1574 1575 1575 1576
1416 1421 1425 1430 1433 1439 1443 1447 1450 1454 1457 1460 1463 1466 1470 1474 1478 1482 1485 1487 1491 1494 1497 1500 1502 1505 1507 1508 1511 1513 1516 1519 1522 1524 1527 1529 1532 1534 1536 1538 1540 1542 1544 1546 1549 1550 1552 1554 1555 1557 1559 1560 1561 1563 1565 1566 1567 1569 1570 1572 1573 1574 1574
1413 1417 1423 1428 1432 1436 1440 1443 1447 1449 1453 1456 1459 1463 1467 1472 1477 1480 1483 1485 1488 1490 1493 1497 1500 1503 1506 1507 1509 1510 1512 1515 1518 1521 1524 1526 1529 1532 1533 1535 1537 1539 1541 1544 1546 1548 1550 1552 1553 1555 1556 1557 1559 1560 1562 1564 1565 1567 1568 1570 1571 1572 1573
1411 1416 1420 1424 1429 1433 1436 1439 1443 1445 1449 1452 1456 1461 1465 1470 1473 1475 1479 1482 1484 1487 1491 1495 1498 1501 1504 1506 1507 1509 1510 1512 1515 1518 1521 1523 1526 1528 1530 1533 1535 1537 1539 1541 1543 1545 1547 1549 1551 1552 1554 1555 1557 1558 1560 1561 1563 1564 1566 1567 1568 1569 1571
1408 1412 1416 1420 1424 1428 1432 1436 1439 1442 1446 1450 1454 1459 1462 1466 1469 1471 1475 1477 1479 1483 1486 1490 1494 1498 1501 1503 1505 1507 1508 1510 1512 1515 1517 1520 1523 1525 1527 1530 1532 1534 1536 1538 1540 1542 1544 1546 1547 1549 1551 1552 1554 1555 1557 1558 1560 1561 1563 1564 1565 1567 1568
1403 1406 1411 1415 1419 1424 1429 1432 1436 1440 1444 1448 1452 1455 1458 1462 1466 1468 1471 1472 1475 1478 1481 1485 1490 1493 1497 1500 1502 1503 1505 1508 1510 1512 1515 1517 1519 1521 1524 1526 1529 1531 1533 1535 1537 1539 1541 1543 1544 1546 1548 1550 1551 1552 1554 1555 1557 1558 1560 1561 1562 1564 1565
1398 1403 1408 1412 1416 1421 1425 1429 1433 1437 1441 1445 1448 1451 1455 1458 1461 1465 1467 1468 1471 1473 1477 1481 1485 1489 1493 1496 1498 1500 1503 1505 1507 1510 1512 1514 1516 1518 1521 1523 1526 1528 1530 1532 1534 1536 1538 1540 1542 1543 1545 1547 1548 1550 1551 1552 1554 1555 1556 1557 1559 1560 1561
1396 1402 1407 1411 1414 1418 1422 1427 1431 1435 1438 1442 1445 1448 1452 1455 1458 1461 1464 1466 1467 1469 1473 1478 1482 1486 1490 1492 1495 1497 1500 1502 1504 1507 1509 1511 1513 1515 1518 1520 1522 1525 1527 1529 1531 1533 1535 1537 1539 1541 1542 1544 1545 1546 1548 1549 1550 1552 1553 1554 1555 1556 1558
1393 1400 1404 1408 1412 1416 1420 1424 1428 1432 1435 1438 1441 1445 1448 1452 1456 1459 1461 1463 1465 1467 1470 1475 1479 1482 1485 1488 1491 1494 1496 1498 1501 1503 1505 1507 1509 1512 1515 1517 1519 1521 1523 1526 1528 1530 1532 1534 1536 1538 1539 1540 1541 1542 1544 1545 1546 1548 1549 1550 1551 1553 1554
1389 1395 1400 1405 1409 1414 1418 1422 1425 1428 1432 1435 1438 1441 1445 1448 1452 1456 1459 1462 1464 1465 1468 1472 1476 1479 1481 1484 1487 1489 1492 1494 1496 1498 1501 1503 1506 1509 1511 1514 1516 1517 1520 1522 1524 1526 1528 1530 1532 1533 1535 1536 1537 1539 1540 1541 1542 1543 1545 1546 1548 1549 1551
1387 1391 1397 1401 1406 1412 1416 1419 1422 1425 1428 1432 1435 1438 1442 1445 1449 1453 1456 1459 1462 1464 1466 1469 1473 1475 1478 1480 1482 1485 1487 1489 1491 1494 1496 1499 1502 1505 1508 1510 1512 1514 1516 1518 1520 1523 1525 1526 1528 1529 1531 1532 1534 1535 1536 1537 1538 1539 1541 1543 1544 1546 1547
1387 1390 1395 1399 1404 1409 1412 1416 1419 1422 1426 1429 1433 1437 1440 1443 1446 1449 1453 1456 1459 1462 1464 1467 1470 1472 1475 1477 1479 1481 1482 1485 1487 1490 1492 1496 1499 1502 1504 1505 1508 1510 1512 1515 1517 1519 1521 1522 1524 1525 1527 1528 1530 1531 1532 1533 1534 1536 1537 1539 1541 1542 1543
1387 1391 1395 1398 1402 1406 1410 1414 1417 1421 1425 1428 1432 1436 1438 1441 1444 1447 1450 1453 1455 1459 1461 1464 1466 1469 1471 1473 1474 1476 1479 1482 1484 1486 1489 1492 1495 1497 1499 1502 1504 1507 1509 1511 1512 1515 1517 1518 1520 1521 1523 1524 1525 1527 1528 1529 1530 1531 1533 1535 1536 1538 1538
1389 1392 1395 1399 1402 1406 1410 1413 1417 1420 1424 1427 1431 1434 1436 1439 1441 1444 1447 1449 1452 1455 1458 1461 1463 1465 1467 1469 1470 1473 1476 1479 1481 1483 1486 1488 1490 1493 1495 1498 1500 1503 1505 1507 1509 1511 1513 1515 1516 1517 1518 1520 1521 1523 1524 1525 1526 1527 1529 1530 1532 1534 1535
1391 1394 1397 1400 1404 1407 1410 1413 1416 1419 1422 1426 1429 1432 1435 1437 1439 1442 1445 1447 1450 1453 1456 1459 1460 1461 1464 1466 1468 1471 1473 1475 1478 1480 1482 1484 1486 1489 1491 1494 1496 1499 1501 1503 1505 1507 1509 1511 1512 1513 1514 1516 1517 1518 1519 1520 1521 1523 1525 1527 1528 1530 1531
1393 1396 1399 1402 1405 1408 1411 1413 1416 1418 1422 1425 1428 1431 1434 1436 1438 1440 1443 1445 1448 1451 1454 1456 1457 1459 1461 1463 1465 1467 1469 1472 1474 1476 1478 1480 1482 1485 1487 1490 1493 1495 1498 1499 1501 1504 1505 1507 1508 1509 1511 1512 1513 1514 1515 1515 1517 1519 1521 1523 1524 1527 1528
1394 1397 1400 1403 1406 1409 1411 1414 1416 1419 1421 1424 1426 1429 1432 1434 1436 1438 1440 1443 1446 1449 1452 1453 1455 1456 1458 1460 1462 1464 1466 1469 1471 1472 1474 1476 1479 1481 1484 1487 1489 1491 1493 1496 1498 1500 1501 1502 1504 1505 1507 1508 1509 1510 1510 1511 1513 1515 1517 1518 1520 1522 1524
1398 1401 1402 1404 1407 1409 1412 1414 1417 1419 1421 1424 1427 1429 1432 1434 1436 1438 1440 1442 1445 1447 1449 1451 1453 1454 1455 1456 1458 1460 1463 1465 1467 1469 1471 1473 1476 1478 1480 1483 1485 1487 1490 1492 1494 1496 1497 1498 1500 1502 1503 1504 1505 1506 1506 1507 1508 1510 1512 1514 1516 1518 1520
1400 1402 1404 1406 1408 1410 1413 1415 1418 1420 1422 1425 1427 1429 1431 1433 1435 1437 1439 1441 1443 1445 1446 1448 1450 1451 1452 1453 1455 1456 1459 1461 1463 1466 1468 1471 1473 1475 1477 1479 1481 1483 1486 1488 1490 1491 1493 1495 1496 1498 1499 1500 1501 1502 1502 1503 1504 1506 1508 1510 1512 1515 1516
1401 1403 1405 1408 1410 1411 1414 1417 1419 1421 1423 1425 1427 1428 1430 1432 1434 1435 1437 1439 1441 1442 1444 1446 1447 1448 1449 1450 1451 1453 1454 1457 1460 1463 1465 1468 1470 1472 1473 1475 1477 1479 1482 1484 1486 1488 1490 1491 1492 1494 1495 1497 1498 1499 1498 1499 1501 1502 1504 1506 1509 1511 1514
1404 1406 1407 1409 1412 1413 1415 1418 1420 1421 1423 1424 1426 1427 1428 1431 1432 1433 1435 1437 1438 1440 1442 1443 1444 1445 1446 1446 1448 1450 1451 1453 1456 1459 1462 1465 1466 1468 1469 1471 1473 1476 1478 1480 1483 1484 1486 1487 1488 1490 1491 1493 1494 1495 1495 1496 1498 1499 1500 1503 1506 1509 1511
1406 1408 1410 1412 1414 1415 1416 1418 1419 1420 1422 1423 1425 1426 1427 1430 1431 1432 1434 1434 1435 1438 1439 1440 1440 1442 1443 1444 1445 1447 1449 1450 1453 1455 1458 1461 1462 1464 1466 1468 1471 1473 1475 1477 1479 1480 1482 1484 1485 1487 1488 1489 1490 1491 1492 1493 1495 1497 1498 1500 1503 1505 1507
1408 1410 1411 1412 1414 1416 1418 1419 1419 1420 1421 1422 1423 1425 1426 1428 1429 1431 1432 1432 1433 1435 1435 1436 1437 1439 1440 1442 1443 1445 1447 1448 1450 1452 1454 1456 1459 1461 1464 1466 1468 1470 1472 1474 1476 1478 1480 1482 1483 1484 1485 1486 1487 1488 1489 1491 1493 1495 1496 1498 1500 1502 1504
1411 1412 1413 1413 1414 1416 1417 1418 1419 1419 1420 1421 1422 1423 1424 1425 1427 1428 1429 1430 1431 1432 1432 1433 1434 1437 1439 1440 1441 1443 1444 1445 1447 1449 1451 1453 1456 1459 1461 1463 1465 1468 1470 1471 1473 1476 1478 1479 1480 1481 1482 1483 1484 1485 1486 1488 1490 1492 1494 1496 1498 1500 1501
1413 1414 1415 1415 1416 1417 1418 1418 1419 1419 1420 1421 1422 1423 1423 1424 1424 1425 1426 1427 1429 1429 1430 1431 1432 1434 1436 1438 1439 1440 1441 1443 1444 1446 1448 1451 1453 1456 1458 1460 1462 1464 1466 1468 1471 1472 1474 1476 1477 1478 1479 1480 1481 1483 1484 1485 1487 1489 1491 1493 1495 1497 1498
1416 1416 1418 1417 1418 1419 1420 1420 1420 1421 1421 1421 1422 1423 1423 1423 1423 1424 1424 1425 1426 1427 1427 1428 1429 1431 1433 1434 1436 1437 1439 1440 1442 1444 1446 1448 1450 1453 1455 1457 1459 1461 1463 1465 1467 1469 1470 1472 1474 1475 1476 1477 1478 1480 1481 1483 1484 1486 1488 1489 1491 1493 1493
1417 1418 1419 1418 1419 1421 1421 1421 1422 1422 1422 1422 1422 1422 1423 1423 1423 1423 1423 1424 1424 1424 1425 1425 1426 1427 1429 1431 1432 1434 1436 1438 1439 1441 1444 1445 1447 1450 1452 1454 1457 1458 1460 1462 1464 1465 1467 1468 1470 1471 1472 1474 1475 1476 1478 1479 1481 1483 1484 1486 1487 1487 1488
1418 1420 1421 1420 1421 1422 1422 1423 1422 1422 1422 1422 1421 1422 1422 1421 1422 1422 1422 1422 1422 1422 1423 1423 1424 1425 1426 1428 1429 1431 1433 1435 1436 1439 1441 1442 1444 1447 1449 1452 1454 1455 1457 1459 1460 1462 1463 1464 1466 1467 1469 1470 1472 1473 1475 1476 1478 1479 1481 1481 1482 1482 1483
1420 1421 1422 1422 1423 1423 1423 1423 1423 1422 1422 1421 1421 1422 1421 1420 1421 1421 1420 1421 1420 1421 1421 1422 1422 1423 1424 1426 1427 1428 1430 1432 1434 1436 1437 1439 1441 1444 1446 1449 1451 1452 1454 1455 1457 1458 1459 1460 1462 1464 1465 1467 1468 1470 1472 1473 1475 1477 1477 1477 1477 1478 1479
1421 1421 1422 1423 1424 1423 1423 1423 1422 1421 1421 1421 1421 1422 1420 1420 1420 1419 1419 1419 1419 1419 1420 1421 1421 1421 1422 1424 1425 1426 1428 1430 1431 1433 1435 1437 1439 1441 1444 1446 1448 1449 1451 1452 1454 1455 1456 1458 1460 1461 1463 1464 1466 1467 1469 1471 1473 1473 1472 1472 1473 1474 1476
1421 1422 1423 1424 1424 1424 1423 1423 1422 1421 1420 1420 1421 1420 1420 1420 1419 1418 1418 1418 1418 1418 1419 1419 1420 1420 1421 1422 1424 1425 1427 1428 1430 1432 1434 1436 1438 1440 1442 1444 1445 1447 1448 1449 1451 1452 1454 1456 1457 1459 1460 1462 1463 1465 1467 1468 1469 1468 1469 1470 1471 1472 1473
1423 1423 1424 1424 1424 1424 1423 1422 1422 1421 1420 1420 1420 1419 1419 1419 1418 1418 1417 1416 1417 1417 1417 1418 1419 1419 1420 1421 1422 1424 1425 1427 1429 1431 1433 1435 1436 1438 1440 1441 1443 1444 1445 1446 1448 1449 1451 1453 1455 1457 1458 1459 1461 1463 1464 1464 1465 1465 1466 1468 1468 1469 1469
1423 1424 1424 1424 1424 1423 1423 1422 1421 1421 1420 1420 1419 1419 1419 1418 1417 1417 1416 1416 1415 1415 1416 1417 1418 1419 1420 1421 1422 1423 1425 1426 1428 1430 1431 1433 1434 1436 1438 1439 1441 1442 1443 1445 1447 1448 1450 1452 1454 1455 1457 1458 1459 1460 1461 1461 1462 1463 1464 1465 1465 1466 1467
1424 1425 1424 1424 1424 1423 1422 1422 1421 1421 1421 1420 1419 1419 1418 1417 1417 1416 1415 1415 1415 1414 1415 1416 1417 1418 1419 1420 1421 1423 1424 1425 1427 1428 1429 1430 1432 1434 1436 1437 1439 1440 1442 1443 1445 1447 1449 1451 1452 1454 1455 1456 1457 1458 1459 1460 1460 1461 1462 1463 1464 1465 1465
1425 1425 1424 1424 1424 1423 1422 1422 1421 1421 1420 1420 1419 1418 1418 1417 1417 1416 1415 1414 1414 1414 1415 1415 1416 1417 1417 1418 1420 1422 1423 1425 1426 1427 1427 1429 1431 1432 1434 1435 1437 1439 1440 1442 1443 1445 1447 1449 1450 1452 1453 1455 1456 1456 1457 1458 1459 1459 1460 1461 1462 1463 1463
1425 1425 1425 1424 1423 1422 1422 1421 1421 1420 1420 1419 1419 1418 1417 1417 1416 1415 1415 1414 1414 1414 1415 1415 1416 1416 1417 1418 1419 1421 1422 1424 1424 1425 1426 1428 1429 1431 1432 1433 1435 1437 1439 1441 1442 1444 1445 1447 1448 1450 1451 1453 1454 1455 1455 1456 1457 1458 1458 1459 1460 1460 1461